Time,TemperatureF,DewpointF,PressureIn,WindDirection,WindDirectionDegrees,WindSpeedMPH,WindSpeedGustMPH,Humidity,HourlyPrecipIn,Conditions,Clouds,dailyrainin,SoftwareType,DateUTC
2013-04-24 00:03:00,29.8,23.5,30.23,SW,214,5.3,5.3,77,0.00,CLR,SKC,0.00,WeatherDisplay:10.37,2013-04-24 05:03:00,
2013-04-24 00:08:00,29.8,23.5,30.23,SW,229,4.6,4.6,77,0.00,CLR,SKC,0.00,WeatherDisplay:10.37,2013-04-24 05:08:00,
2013-04-24 00:13:00,29.7,23.4,30.23,SW,226,5.8,5.8,77,0.00,CLR,SKC,0.00,WeatherDisplay:10.37,2013-04-24 05:13:00,
2013-04-24 00:18:00,29.5,23.5,30.23,SW,227,3.5,3.5,78,0.00,CLR,SKC,0.00,WeatherDisplay:10.37,2013-04-24 05:18:00,
2013-04-24 00:23:00,29.4,23.4,30.23,SW,229,4.6,4.6,78,0.00,CLR,SKC,0.00,WeatherDisplay:10.37,2013-04-24 05:23:00,
2013-04-24 00:28:00,29.3,23.3,30.23,SW,221,5.8,5.8,78,0.00,CLR,SKC,0.00,WeatherDisplay:10.37,2013-04-24 05:28:00,
2013-04-24 00:33:00,29.2,23.5,30.23,SW,219,5.8,5.8,79,0.00,CLR,SKC,0.00,WeatherDisplay:10.37,2013-04-24 05:33:00,
2013-04-24 00:38:00,29.2,23.2,30.23,SW,214,5.8,5.8,78,0.00,CLR,SKC,0.00,WeatherDisplay:10.37,2013-04-24 05:38:00,
2013-04-24 00:43:00,29.0,23.3,30.24,SSW,209,5.3,5.3,79,0.00,CLR,SKC,0.00,WeatherDisplay:10.37,2013-04-24 05:43:00,
2013-04-24 00:48:00,28.8,23.1,30.24,SSW,212,6.4,6.4,79,0.00,CLR,SKC,0.00,WeatherDisplay:10.37,2013-04-24 05:48:00,
2013-04-24 00:53:00,28.8,23.4,30.24,SW,214,3.5,3.5,80,0.00,CLR,SKC,0.00,WeatherDisplay:10.37,2013-04-24 05:53:00,
2013-04-24 00:58:00,28.5,23.1,30.24,SSW,212,3.5,3.5,80,0.00,CLR,SKC,0.00,WeatherDisplay:10.37,2013-04-24 05:58:00,
2013-04-24 01:03:00,28.3,22.9,30.24,SSW,204,2.3,2.3,80,0.00,CLR,SKC,0.00,WeatherDisplay:10.37,2013-04-24 06:03:00,
2013-04-24 01:08:00,28.1,22.7,30.24,SSW,199,2.3,2.3,80,0.00,CLR,SKC,0.00,WeatherDisplay:10.37,2013-04-24 06:08:00,
2013-04-24 01:13:00,28.0,22.9,30.24,SW,214,3.5,3.5,81,0.00,CLR,SKC,0.00,WeatherDisplay:10.37,2013-04-24 06:13:00,
2013-04-24 01:18:00,28.0,22.9,30.24,SW,217,3.5,3.5,81,0.00,CLR,SKC,0.00,WeatherDisplay:10.37,2013-04-24 06:18:00,
2013-04-24 01:23:00,27.9,22.8,30.23,SW,220,3.5,3.5,81,0.00,CLR,SKC,0.00,WeatherDisplay:10.37,2013-04-24 06:23:00,
2013-04-24 01:28:00,27.9,22.8,30.23,SW,214,4.6,4.6,81,0.00,CLR,SKC,0.00,WeatherDisplay:10.37,2013-04-24 06:28:00,
2013-04-24 01:33:00,27.8,22.7,30.23,SW,214,3.5,3.5,81,0.00,CLR,SKC,0.00,WeatherDisplay:10.37,2013-04-24 06:33:00,
2013-04-24 01:38:00,27.7,22.6,30.23,SW,228,4.6,4.6,81,0.00,CLR,SKC,0.00,WeatherDisplay:10.37,2013-04-24 06:38:00,
2013-04-24 01:43:00,27.6,22.5,30.23,SW,219,5.8,5.8,81,0.00,CLR,SKC,0.00,WeatherDisplay:10.37,2013-04-24 06:43:00,
2013-04-24 01:48:00,27.5,22.4,30.22,SW,220,2.3,2.3,81,0.00,CLR,SKC,0.00,WeatherDisplay:10.37,2013-04-24 06:48:00,
2013-04-24 01:53:00,27.3,22.5,30.22,SSW,212,0.0,0.0,82,0.00,CLR,SKC,0.00,WeatherDisplay:10.37,2013-04-24 06:53:00,
2013-04-24 01:58:00,27.2,22.4,30.22,SW,222,3.5,3.5,82,0.00,CLR,SKC,0.00,WeatherDisplay:10.37,2013-04-24 06:58:00,
2013-04-24 02:03:00,27.1,22.3,30.22,SW,225,3.5,3.5,82,0.00,CLR,SKC,0.00,WeatherDisplay:10.37,2013-04-24 07:03:00,
2013-04-24 02:08:00,27.1,22.3,30.22,SW,224,3.5,3.5,82,0.00,CLR,SKC,0.00,WeatherDisplay:10.37,2013-04-24 07:08:00,
2013-04-24 02:13:00,27.0,22.2,30.22,SW,219,2.3,2.3,82,0.00,CLR,SKC,0.00,WeatherDisplay:10.37,2013-04-24 07:13:00,
2013-04-24 02:18:00,26.7,21.9,30.22,SSW,212,0.0,0.0,82,0.00,CLR,SKC,0.00,WeatherDisplay:10.37,2013-04-24 07:18:00,
2013-04-24 02:23:00,26.6,21.8,30.22,SSW,212,0.0,0.0,82,0.00,CLR,SKC,0.00,WeatherDisplay:10.37,2013-04-24 07:23:00,
2013-04-24 02:28:00,26.5,21.7,30.22,SSW,205,0.0,0.0,82,0.00,CLR,SKC,0.00,WeatherDisplay:10.37,2013-04-24 07:28:00,
2013-04-24 02:33:00,26.5,21.7,30.22,South,191,0.0,0.0,82,0.00,CLR,SKC,0.00,WeatherDisplay:10.37,2013-04-24 07:33:00,
2013-04-24 02:38:00,26.4,21.7,30.21,SSW,211,0.0,0.0,82,0.00,CLR,SKC,0.00,WeatherDisplay:10.37,2013-04-24 07:38:00,
2013-04-24 02:43:00,26.4,21.7,30.21,SSW,203,0.0,0.0,82,0.00,CLR,SKC,0.00,WeatherDisplay:10.37,2013-04-24 07:43:00,
2013-04-24 02:48:00,26.2,21.7,30.21,SSW,201,0.0,0.0,83,0.00,CLR,SKC,0.00,WeatherDisplay:10.37,2013-04-24 07:48:00,
2013-04-24 02:53:00,26.1,21.6,30.21,SSW,200,0.0,0.0,83,0.00,CLR,SKC,0.00,WeatherDisplay:10.37,2013-04-24 07:53:00,
2013-04-24 02:58:00,26.2,21.7,30.21,SSW,196,1.2,0.0,83,0.00,CLR,SKC,0.00,WeatherDisplay:10.37,2013-04-24 07:58:00,
2013-04-24 03:03:00,26.1,21.6,30.21,SSW,200,0.0,0.0,83,0.00,CLR,SKC,0.00,WeatherDisplay:10.37,2013-04-24 08:03:00,
2013-04-24 03:08:00,25.9,21.4,30.21,SSW,201,0.0,0.0,83,0.00,CLR,SKC,0.00,WeatherDisplay:10.37,2013-04-24 08:08:00,
2013-04-24 03:13:00,25.8,21.6,30.21,SSW,198,0.0,0.0,84,0.00,CLR,SKC,0.00,WeatherDisplay:10.37,2013-04-24 08:13:00,
2013-04-24 03:18:00,25.7,21.5,30.21,SSW,198,0.0,0.0,84,0.00,CLR,SKC,0.00,WeatherDisplay:10.37,2013-04-24 08:18:00,
2013-04-24 03:23:00,25.7,21.5,30.20,SW,215,0.0,0.0,84,0.00,CLR,SKC,0.00,WeatherDisplay:10.37,2013-04-24 08:23:00,
2013-04-24 03:28:00,25.6,21.4,30.20,SSW,203,0.0,0.0,84,0.00,CLR,SKC,0.00,WeatherDisplay:10.37,2013-04-24 08:28:00,
2013-04-24 03:33:00,25.4,21.2,30.21,SSW,204,0.0,0.0,84,0.00,CLR,SKC,0.00,WeatherDisplay:10.37,2013-04-24 08:33:00,
2013-04-24 03:38:00,25.2,21.0,30.20,SSW,203,0.0,0.0,84,0.00,CLR,SKC,0.00,WeatherDisplay:10.37,2013-04-24 08:38:00,
2013-04-24 03:43:00,25.0,20.8,30.21,SSW,204,0.0,0.0,84,0.00,CLR,SKC,0.00,WeatherDisplay:10.37,2013-04-24 08:43:00,
2013-04-24 03:48:00,25.1,20.9,30.20,South,189,0.0,0.0,84,0.00,CLR,SKC,0.00,WeatherDisplay:10.37,2013-04-24 08:48:00,
2013-04-24 03:53:00,25.0,20.8,30.20,SSW,200,0.0,0.0,84,0.00,CLR,SKC,0.00,WeatherDisplay:10.37,2013-04-24 08:53:00,
2013-04-24 03:58:00,25.0,21.1,30.20,South,169,1.2,0.0,85,0.00,CLR,SKC,0.00,WeatherDisplay:10.37,2013-04-24 08:58:00,
2013-04-24 04:03:00,25.0,21.1,30.20,South,177,0.0,0.0,85,0.00,CLR,SKC,0.00,WeatherDisplay:10.37,2013-04-24 09:03:00,
2013-04-24 04:08:00,24.8,20.9,30.20,SSW,206,0.0,0.0,85,0.00,CLR,SKC,0.00,WeatherDisplay:10.37,2013-04-24 09:08:00,
2013-04-24 04:13:00,24.7,20.8,30.20,SW,216,0.0,0.0,85,0.00,CLR,SKC,0.00,WeatherDisplay:10.37,2013-04-24 09:13:00,
2013-04-24 04:18:00,24.8,20.9,30.20,SSW,200,1.2,1.2,85,0.00,CLR,SKC,0.00,WeatherDisplay:10.37,2013-04-24 09:18:00,
2013-04-24 04:23:00,25.0,21.1,30.21,SSW,210,0.0,0.0,85,0.00,CLR,SKC,0.00,WeatherDisplay:10.37,2013-04-24 09:23:00,
2013-04-24 04:28:00,25.0,20.8,30.20,SW,219,3.5,0.0,84,0.00,CLR,SKC,0.00,WeatherDisplay:10.37,2013-04-24 09:28:00,
2013-04-24 04:33:00,25.0,20.8,30.20,South,187,0.0,0.0,84,0.00,CLR,SKC,0.00,WeatherDisplay:10.37,2013-04-24 09:33:00,
2013-04-24 04:38:00,24.9,21.0,30.20,SSW,203,0.0,0.0,85,0.00,CLR,SKC,0.00,WeatherDisplay:10.37,2013-04-24 09:38:00,
2013-04-24 04:43:00,24.9,21.0,30.21,South,183,2.1,2.1,85,0.00,CLR,SKC,0.00,WeatherDisplay:10.37,2013-04-24 09:43:00,
2013-04-24 04:48:00,24.8,20.9,30.21,South,188,0.0,0.0,85,0.00,CLR,SKC,0.00,WeatherDisplay:10.37,2013-04-24 09:48:00,
2013-04-24 04:53:00,24.8,20.9,30.21,SSW,192,0.0,0.0,85,0.00,CLR,SKC,0.00,WeatherDisplay:10.37,2013-04-24 09:53:00,
2013-04-24 04:58:00,24.8,20.9,30.21,South,191,0.0,0.0,85,0.00,CLR,SKC,0.00,WeatherDisplay:10.37,2013-04-24 09:58:00,
2013-04-24 05:03:00,24.7,20.8,30.21,SSW,195,0.0,0.0,85,0.00,CLR,SKC,0.00,WeatherDisplay:10.37,2013-04-24 10:03:00,
2013-04-24 05:08:00,24.6,20.7,30.21,SSW,193,0.0,0.0,85,0.00,CLR,SKC,0.00,WeatherDisplay:10.37,2013-04-24 10:08:00,
2013-04-24 05:13:00,24.5,20.6,30.21,SSW,207,0.0,0.0,85,0.00,CLR,SKC,0.00,WeatherDisplay:10.37,2013-04-24 10:13:00,
2013-04-24 05:18:00,24.4,20.5,30.21,SSW,198,0.0,0.0,85,0.00,CLR,SKC,0.00,WeatherDisplay:10.37,2013-04-24 10:18:00,
2013-04-24 05:23:00,24.4,20.8,30.21,SSW,206,0.0,0.0,86,0.00,CLR,SKC,0.00,WeatherDisplay:10.37,2013-04-24 10:23:00,
2013-04-24 05:28:00,24.3,20.7,30.21,SW,214,0.0,0.0,86,0.00,CLR,SKC,0.00,WeatherDisplay:10.37,2013-04-24 10:28:00,
2013-04-24 05:33:00,24.3,20.7,30.21,SW,218,0.0,0.0,86,0.00,CLR,SKC,0.00,WeatherDisplay:10.37,2013-04-24 10:33:00,
2013-04-24 05:39:00,24.3,20.7,30.21,SSW,197,1.2,0.0,86,0.00,CLR,SKC,0.00,WeatherDisplay:10.37,2013-04-24 10:39:00,
2013-04-24 05:44:00,24.4,20.8,30.21,SSW,207,0.0,0.0,86,0.00,CLR,SKC,0.00,WeatherDisplay:10.37,2013-04-24 10:44:00,
2013-04-24 05:49:00,24.4,20.5,30.21,SSW,202,0.0,0.0,85,0.00,CLR,SKC,0.00,WeatherDisplay:10.37,2013-04-24 10:49:00,
2013-04-24 05:54:00,24.4,20.5,30.21,SSW,209,0.0,0.0,85,0.00,CLR,SKC,0.00,WeatherDisplay:10.37,2013-04-24 10:54:00,
2013-04-24 05:59:00,24.5,20.6,30.21,SSW,196,0.0,0.0,85,0.00,CLR,SKC,0.00,WeatherDisplay:10.37,2013-04-24 10:59:00,
2013-04-24 06:04:00,24.5,20.9,30.21,SSW,207,0.0,0.0,86,0.00,CLR,SKC,0.00,WeatherDisplay:10.37,2013-04-24 11:04:00,
2013-04-24 06:09:00,24.5,20.9,30.21,South,188,0.0,0.0,86,0.00,CLR,SKC,0.00,WeatherDisplay:10.37,2013-04-24 11:09:00,
2013-04-24 06:14:00,24.5,20.9,30.21,SSW,208,0.0,0.0,86,0.00,CLR,SKC,0.00,WeatherDisplay:10.37,2013-04-24 11:14:00,
2013-04-24 06:19:00,24.5,20.6,30.22,SSW,198,0.0,0.0,85,0.00,CLR,SKC,0.00,WeatherDisplay:10.37,2013-04-24 11:19:00,
2013-04-24 06:24:00,24.6,21.0,30.22,SSW,200,0.0,0.0,86,0.00,CLR,SKC,0.00,WeatherDisplay:10.37,2013-04-24 11:24:00,
2013-04-24 06:29:00,24.6,20.7,30.22,South,186,2.3,2.3,85,0.00,CLR,SKC,0.00,WeatherDisplay:10.37,2013-04-24 11:29:00,
2013-04-24 06:34:00,24.7,21.1,30.22,SSW,196,0.0,0.0,86,0.00,CLR,SKC,0.00,WeatherDisplay:10.37,2013-04-24 11:34:00,
2013-04-24 06:39:00,24.7,20.8,30.22,SSW,206,0.0,0.0,85,0.00,CLR,SKC,0.00,WeatherDisplay:10.37,2013-04-24 11:39:00,
2013-04-24 06:44:00,24.7,20.8,30.22,SSW,197,0.0,0.0,85,0.00,CLR,SKC,0.00,WeatherDisplay:10.37,2013-04-24 11:44:00,
2013-04-24 06:49:00,24.8,20.9,30.22,SSW,193,0.0,0.0,85,0.00,CLR,SKC,0.00,WeatherDisplay:10.37,2013-04-24 11:49:00,
2013-04-24 06:54:00,25.0,21.1,30.22,South,180,1.2,0.0,85,0.00,CLR,SKC,0.00,WeatherDisplay:10.37,2013-04-24 11:54:00,
2013-04-24 06:59:00,25.0,21.1,30.22,SSW,200,0.0,0.0,85,0.00,CLR,SKC,0.00,WeatherDisplay:10.37,2013-04-24 11:59:00,
2013-04-24 07:04:00,25.1,21.2,30.23,SSW,213,2.1,2.1,85,0.00,CLR,SKC,0.00,WeatherDisplay:10.37,2013-04-24 12:04:00,
2013-04-24 07:09:00,25.5,21.6,30.22,SW,217,0.0,0.0,85,0.00,CLR,SKC,0.00,WeatherDisplay:10.37,2013-04-24 12:09:00,
2013-04-24 07:14:00,26.0,21.8,30.23,SSW,204,0.0,0.0,84,0.00,CLR,SKC,0.00,WeatherDisplay:10.37,2013-04-24 12:14:00,
2013-04-24 07:19:00,26.3,22.1,30.23,SSW,205,0.0,0.0,84,0.00,CLR,SKC,0.00,WeatherDisplay:10.37,2013-04-24 12:19:00,
2013-04-24 07:24:00,26.7,22.2,30.23,SSW,210,0.0,0.0,83,0.00,CLR,SKC,0.00,WeatherDisplay:10.37,2013-04-24 12:24:00,
2013-04-24 07:29:00,27.1,22.3,30.23,SSW,200,0.0,0.0,82,0.00,CLR,SKC,0.00,WeatherDisplay:10.37,2013-04-24 12:29:00,
2013-04-24 07:34:00,27.4,22.6,30.23,SSW,201,2.3,2.3,82,0.00,CLR,SKC,0.00,WeatherDisplay:10.37,2013-04-24 12:34:00,
2013-04-24 07:39:00,27.7,22.9,30.22,SW,217,1.2,1.2,82,0.00,CLR,SKC,0.00,WeatherDisplay:10.37,2013-04-24 12:39:00,
2013-04-24 07:44:00,28.0,22.9,30.22,SSW,200,2.1,2.1,81,0.00,CLR,SKC,0.00,WeatherDisplay:10.37,2013-04-24 12:44:00,
2013-04-24 07:49:00,28.3,23.2,30.23,SSW,205,3.5,3.5,81,0.00,CLR,SKC,0.00,WeatherDisplay:10.37,2013-04-24 12:49:00,
2013-04-24 07:54:00,28.5,23.4,30.22,WSW,238,3.5,3.5,81,0.00,CLR,SKC,0.00,WeatherDisplay:10.37,2013-04-24 12:54:00,
2013-04-24 07:59:00,28.9,23.8,30.22,SSW,205,2.3,2.3,81,0.00,CLR,SKC,0.00,WeatherDisplay:10.37,2013-04-24 12:59:00,
2013-04-24 08:04:00,29.4,24.0,30.22,South,180,4.6,4.6,80,0.00,CLR,SKC,0.00,WeatherDisplay:10.37,2013-04-24 13:04:00,
2013-04-24 08:09:00,29.7,24.0,30.23,SE,126,5.8,5.8,79,0.00,CLR,SKC,0.00,WeatherDisplay:10.37,2013-04-24 13:09:00,
2013-04-24 08:14:00,30.2,24.5,30.23,WSW,238,5.3,5.3,79,0.00,CLR,SKC,0.00,WeatherDisplay:10.37,2013-04-24 13:14:00,
2013-04-24 08:19:00,30.7,25.0,30.23,SSW,204,4.6,4.6,79,0.00,CLR,SKC,0.00,WeatherDisplay:10.37,2013-04-24 13:19:00,
2013-04-24 08:24:00,31.2,25.4,30.23,SSW,211,2.1,2.1,79,0.00,CLR,SKC,0.00,WeatherDisplay:10.37,2013-04-24 13:24:00,
2013-04-24 08:29:00,32.0,25.9,30.23,SSW,209,2.3,2.3,78,0.00,CLR,SKC,0.00,WeatherDisplay:10.37,2013-04-24 13:29:00,
2013-04-24 08:34:00,32.3,25.9,30.23,SSE,166,2.3,2.3,77,0.00,CLR,SKC,0.00,WeatherDisplay:10.37,2013-04-24 13:34:00,
2013-04-24 08:39:00,32.9,26.2,30.23,SSW,199,2.3,0.0,76,0.00,CLR,SKC,0.00,WeatherDisplay:10.37,2013-04-24 13:39:00,
2013-04-24 08:44:00,33.5,27.1,30.23,East,89,2.3,2.3,77,0.00,CLR,SKC,0.00,WeatherDisplay:10.37,2013-04-24 13:44:00,
2013-04-24 08:49:00,34.6,27.5,30.23,SSW,193,1.1,1.1,75,0.00,CLR,SKC,0.00,WeatherDisplay:10.37,2013-04-24 13:49:00,
2013-04-24 08:54:00,35.4,27.6,30.23,SE,127,3.2,3.2,73,0.00,CLR,SKC,0.00,WeatherDisplay:10.37,2013-04-24 13:54:00,
2013-04-24 08:59:00,35.8,27.3,30.23,SSW,209,5.8,5.8,71,0.00,CLR,SKC,0.00,WeatherDisplay:10.37,2013-04-24 13:59:00,
2013-04-24 09:04:00,35.9,27.4,30.23,SSE,152,5.8,5.8,71,0.00,CLR,SKC,0.00,WeatherDisplay:10.37,2013-04-24 14:04:00,
2013-04-24 09:09:00,36.5,27.6,30.23,North,7,1.2,1.2,70,0.00,CLR,SKC,0.00,WeatherDisplay:10.37,2013-04-24 14:09:00,
2013-04-24 09:14:00,37.1,27.2,30.23,SSE,155,5.3,5.3,67,0.00,CLR,SKC,0.00,WeatherDisplay:10.37,2013-04-24 14:14:00,
2013-04-24 09:19:00,37.4,27.8,30.23,SSW,206,4.2,4.2,68,0.00,CLR,SKC,0.00,WeatherDisplay:10.37,2013-04-24 14:19:00,
2013-04-24 09:24:00,37.6,27.6,30.23,SW,215,6.4,6.4,67,0.00,CLR,SKC,0.00,WeatherDisplay:10.37,2013-04-24 14:24:00,
2013-04-24 09:29:00,38.2,27.8,30.22,SW,228,4.2,4.2,66,0.00,CLR,SKC,0.00,WeatherDisplay:10.37,2013-04-24 14:29:00,
2013-04-24 09:34:00,39.3,28.1,30.22,SSW,198,3.5,3.5,64,0.00,CLR,SKC,0.00,WeatherDisplay:10.37,2013-04-24 14:34:00,
2013-04-24 09:39:00,39.5,27.5,30.22,SSW,210,6.9,6.9,62,0.00,CLR,SKC,0.00,WeatherDisplay:10.37,2013-04-24 14:39:00,
2013-04-24 09:44:00,39.9,27.9,30.22,South,174,6.9,6.9,62,0.00,CLR,SKC,0.00,WeatherDisplay:10.37,2013-04-24 14:44:00,
2013-04-24 09:49:00,40.3,28.3,30.23,SW,216,6.4,6.4,62,0.00,CLR,SKC,0.00,WeatherDisplay:10.37,2013-04-24 14:49:00,
2013-04-24 09:54:00,40.3,27.5,30.22,SW,219,6.9,6.9,60,0.00,CLR,SKC,0.00,WeatherDisplay:10.37,2013-04-24 14:54:00,
2013-04-24 09:59:00,40.6,27.0,30.22,SSW,203,7.4,7.4,58,0.00,CLR,SKC,0.00,WeatherDisplay:10.37,2013-04-24 14:59:00,
2013-04-24 10:04:00,41.2,27.9,30.22,SW,217,4.2,4.2,59,0.00,CLR,SKC,0.00,WeatherDisplay:10.37,2013-04-24 15:04:00,
2013-04-24 10:09:00,40.9,28.1,30.22,SE,143,6.9,6.9,60,0.00,CLR,SKC,0.00,WeatherDisplay:10.37,2013-04-24 15:09:00,
2013-04-24 10:14:00,41.5,27.8,30.21,SSW,193,6.9,6.9,58,0.00,CLR,SKC,0.00,WeatherDisplay:10.37,2013-04-24 15:14:00,
2013-04-24 10:19:00,41.8,27.7,30.21,SSW,194,5.8,5.8,57,0.00,CLR,SKC,0.00,WeatherDisplay:10.37,2013-04-24 15:19:00,
2013-04-24 10:24:00,41.5,26.1,30.21,SW,214,8.1,8.1,54,0.00,CLR,SKC,0.00,WeatherDisplay:10.37,2013-04-24 15:24:00,
2013-04-24 10:29:00,41.6,27.1,30.21,South,188,8.5,8.5,56,0.00,CLR,SKC,0.00,WeatherDisplay:10.37,2013-04-24 15:29:00,
2013-04-24 10:34:00,42.3,28.1,30.21,SW,228,3.5,3.5,57,0.00,CLR,SKC,0.00,WeatherDisplay:10.37,2013-04-24 15:34:00,
2013-04-24 10:39:00,43.0,27.0,30.21,SW,220,8.5,8.5,53,0.00,CLR,SKC,0.00,WeatherDisplay:10.37,2013-04-24 15:39:00,
2013-04-24 10:44:00,43.1,27.1,30.21,SSE,147,10.4,10.4,53,0.00,CLR,SKC,0.00,WeatherDisplay:10.37,2013-04-24 15:44:00,
2013-04-24 10:49:00,43.3,27.3,30.21,East,90,6.9,6.9,53,0.00,CLR,SKC,0.00,WeatherDisplay:10.37,2013-04-24 15:49:00,
2013-04-24 10:54:00,43.5,28.4,30.21,SSW,201,8.5,8.5,55,0.00,CLR,SKC,0.00,WeatherDisplay:10.37,2013-04-24 15:54:00,
2013-04-24 10:59:00,44.5,28.4,30.21,SSW,193,3.5,3.5,53,0.00,CLR,SKC,0.00,WeatherDisplay:10.37,2013-04-24 15:59:00,
2013-04-24 11:04:00,44.6,29.0,30.21,SSE,161,7.4,7.4,54,0.00,CLR,SKC,0.00,WeatherDisplay:10.37,2013-04-24 16:04:00,
2013-04-24 11:09:00,44.5,28.4,30.21,SSW,208,7.4,7.4,53,0.00,CLR,SKC,0.00,WeatherDisplay:10.37,2013-04-24 16:09:00,
2013-04-24 11:14:00,44.8,27.8,30.21,ESE,110,6.4,6.4,51,0.00,CLR,SKC,0.00,WeatherDisplay:10.37,2013-04-24 16:14:00,
2013-04-24 11:19:00,45.2,26.7,30.20,SW,216,6.4,6.4,48,0.00,CLR,SKC,0.00,WeatherDisplay:10.37,2013-04-24 16:19:00,
2013-04-24 11:25:00,45.2,26.7,30.20,SSW,205,8.5,8.5,48,0.00,CLR,SKC,0.00,WeatherDisplay:10.37,2013-04-24 16:25:00,
2013-04-24 11:30:00,45.3,26.7,30.20,SSE,161,9.5,9.5,48,0.00,CLR,SKC,0.00,WeatherDisplay:10.37,2013-04-24 16:30:00,
2013-04-24 11:35:00,46.0,27.4,30.20,South,177,10.6,10.6,48,0.00,CLR,SKC,0.00,WeatherDisplay:10.37,2013-04-24 16:35:00,
2013-04-24 11:40:00,46.5,28.8,30.20,SSE,148,8.5,8.5,50,0.00,CLR,SKC,0.00,WeatherDisplay:10.37,2013-04-24 16:40:00,
2013-04-24 11:45:00,47.1,27.4,30.20,SW,220,6.9,6.9,46,0.00,CLR,SKC,0.00,WeatherDisplay:10.37,2013-04-24 16:45:00,
2013-04-24 11:50:00,47.0,27.8,30.20,South,184,10.6,10.6,47,0.00,CLR,SKC,0.00,WeatherDisplay:10.37,2013-04-24 16:50:00,
2013-04-24 11:55:00,47.1,26.3,30.19,South,176,6.9,6.9,44,0.00,CLR,SKC,0.00,WeatherDisplay:10.37,2013-04-24 16:55:00,
2013-04-24 12:00:00,47.3,26.5,30.19,ESE,121,9.5,9.5,44,0.00,CLR,SKC,0.00,WeatherDisplay:10.37,2013-04-24 17:00:00,
2013-04-24 12:05:00,47.7,26.8,30.19,SW,227,10.4,10.4,44,0.00,CLR,SKC,0.00,WeatherDisplay:10.37,2013-04-24 17:05:00,
2013-04-24 12:10:00,47.8,26.9,30.19,SSW,200,8.5,8.5,44,0.00,CLR,SKC,0.00,WeatherDisplay:10.37,2013-04-24 17:10:00,
2013-04-24 12:15:00,48.3,25.1,30.19,SW,227,8.5,8.5,40,0.00,CLR,SKC,0.00,WeatherDisplay:10.37,2013-04-24 17:15:00,
2013-04-24 12:20:00,48.8,26.1,30.19,SE,131,12.7,12.7,41,0.00,CLR,SKC,0.00,WeatherDisplay:10.37,2013-04-24 17:20:00,
2013-04-24 12:25:00,48.6,25.3,30.18,ESE,108,13.8,13.8,40,0.00,CLR,SKC,0.00,WeatherDisplay:10.37,2013-04-24 17:25:00,
2013-04-24 12:30:00,48.8,26.1,30.18,SE,146,13.8,13.8,41,0.00,CLR,SKC,0.00,WeatherDisplay:10.37,2013-04-24 17:30:00,
2013-04-24 12:35:00,48.8,26.1,30.18,SE,135,7.4,7.4,41,0.00,CLR,SKC,0.00,WeatherDisplay:10.37,2013-04-24 17:35:00,
2013-04-24 12:40:00,48.8,25.5,30.18,NNE,17,11.7,11.7,40,0.00,CLR,SKC,0.00,WeatherDisplay:10.37,2013-04-24 17:40:00,
2013-04-24 12:45:00,49.4,26.1,30.17,SW,214,15.0,15.0,40,0.00,CLR,SKC,0.00,WeatherDisplay:10.37,2013-04-24 17:45:00,
2013-04-24 12:50:00,49.8,27.0,30.17,SE,143,6.9,6.9,41,0.00,CLR,SKC,0.00,WeatherDisplay:10.37,2013-04-24 17:50:00,
2013-04-24 12:55:00,50.3,26.9,30.17,SSE,153,14.8,14.8,40,0.00,CLR,SKC,0.00,WeatherDisplay:10.37,2013-04-24 17:55:00,
2013-04-24 13:00:00,50.7,27.2,30.17,South,172,10.4,10.4,40,0.00,CLR,SKC,0.00,WeatherDisplay:10.37,2013-04-24 18:00:00,
2013-04-24 13:05:00,50.7,24.7,30.17,SSW,202,12.7,12.7,36,0.00,CLR,SKC,0.00,WeatherDisplay:10.37,2013-04-24 18:05:00,
2013-04-24 13:10:00,50.9,25.5,30.17,SW,236,11.5,11.5,37,0.00,CLR,SKC,0.00,WeatherDisplay:10.37,2013-04-24 18:10:00,
2013-04-24 13:15:00,51.4,25.3,30.17,East,100,14.8,14.8,36,0.00,CLR,SKC,0.00,WeatherDisplay:10.37,2013-04-24 18:15:00,
2013-04-24 13:20:00,51.6,26.1,30.17,ESE,104,10.6,10.6,37,0.00,CLR,SKC,0.00,WeatherDisplay:10.37,2013-04-24 18:20:00,
2013-04-24 13:25:00,51.6,26.1,30.16,East,97,10.6,10.6,37,0.00,CLR,SKC,0.00,WeatherDisplay:10.37,2013-04-24 18:25:00,
2013-04-24 13:30:00,52.0,27.8,30.16,ESE,110,8.1,8.1,39,0.00,CLR,SKC,0.00,WeatherDisplay:10.37,2013-04-24 18:30:00,
2013-04-24 13:35:00,52.2,26.0,30.16,ESE,111,15.0,15.0,36,0.00,CLR,SKC,0.00,WeatherDisplay:10.37,2013-04-24 18:35:00,
2013-04-24 13:40:00,52.6,27.7,30.16,ESE,118,6.9,6.9,38,0.00,CLR,SKC,0.00,WeatherDisplay:10.37,2013-04-24 18:40:00,
2013-04-24 13:45:00,52.3,26.8,30.16,SSE,154,11.5,11.5,37,0.00,CLR,SKC,0.00,WeatherDisplay:10.37,2013-04-24 18:45:00,
2013-04-24 13:50:00,53.0,26.0,30.16,SE,144,6.9,6.9,35,0.00,CLR,SKC,0.00,WeatherDisplay:10.37,2013-04-24 18:50:00,
2013-04-24 13:55:00,53.7,28.7,30.15,SSE,155,12.7,12.7,38,0.00,CLR,SKC,0.00,WeatherDisplay:10.37,2013-04-24 18:55:00,
2013-04-24 14:00:00,53.8,26.8,30.15,North,359,13.8,13.8,35,0.00,CLR,SKC,0.00,WeatherDisplay:10.37,2013-04-24 19:00:00,
2013-04-24 14:05:00,53.8,26.1,30.15,East,85,6.9,6.9,34,0.00,CLR,SKC,0.00,WeatherDisplay:10.37,2013-04-24 19:05:00,
2013-04-24 14:10:00,54.0,25.5,30.14,SE,137,18.4,18.4,33,0.00,CLR,SKC,0.00,WeatherDisplay:10.37,2013-04-24 19:10:00,
2013-04-24 14:15:00,54.3,26.5,30.14,NE,52,12.7,12.7,34,0.00,CLR,SKC,0.00,WeatherDisplay:10.37,2013-04-24 19:15:00,
2013-04-24 14:20:00,54.2,25.7,30.14,SE,138,16.1,16.1,33,0.00,CLR,SKC,0.00,WeatherDisplay:10.37,2013-04-24 19:20:00,
2013-04-24 14:25:00,54.4,25.1,30.14,East,101,11.7,11.7,32,0.00,CLR,SKC,0.00,WeatherDisplay:10.37,2013-04-24 19:25:00,
2013-04-24 14:30:00,54.8,26.9,30.14,East,88,11.5,11.5,34,0.00,CLR,SKC,0.00,WeatherDisplay:10.37,2013-04-24 19:30:00,
2013-04-24 14:35:00,55.2,25.8,30.13,SW,218,17.3,17.3,32,0.00,CLR,SKC,0.00,WeatherDisplay:10.37,2013-04-24 19:35:00,
2013-04-24 14:40:00,55.4,26.7,30.13,East,94,15.9,15.9,33,0.00,CLR,SKC,0.00,WeatherDisplay:10.37,2013-04-24 19:40:00,
2013-04-24 14:45:00,55.4,23.6,30.13,SSW,206,18.4,18.4,29,0.00,CLR,SKC,0.00,WeatherDisplay:10.37,2013-04-24 19:45:00,
2013-04-24 14:50:00,55.6,25.4,30.13,SE,146,13.8,13.8,31,0.00,CLR,SKC,0.00,WeatherDisplay:10.37,2013-04-24 19:50:00,
2013-04-24 14:55:00,56.1,25.8,30.13,East,84,15.0,15.0,31,0.00,CLR,SKC,0.00,WeatherDisplay:10.37,2013-04-24 19:55:00,
2013-04-24 15:00:00,56.4,24.5,30.13,SSE,168,14.8,14.8,29,0.00,CLR,SKC,0.00,WeatherDisplay:10.37,2013-04-24 20:00:00,
2013-04-24 15:05:00,56.5,24.6,30.13,SE,140,18.0,18.0,29,0.00,CLR,SKC,0.00,WeatherDisplay:10.37,2013-04-24 20:05:00,
2013-04-24 15:10:00,56.5,24.6,30.12,SE,143,13.8,13.8,29,0.00,CLR,SKC,0.00,WeatherDisplay:10.37,2013-04-24 20:10:00,
2013-04-24 15:15:00,56.7,25.6,30.12,South,191,11.7,11.7,30,0.00,CLR,SKC,0.00,WeatherDisplay:10.37,2013-04-24 20:15:00,
2013-04-24 15:20:00,57.1,25.9,30.12,West,270,20.7,20.7,30,0.00,CLR,SKC,0.00,WeatherDisplay:10.37,2013-04-24 20:20:00,
2013-04-24 15:25:00,57.2,24.3,30.11,SSE,147,10.6,10.6,28,0.00,CLR,SKC,0.00,WeatherDisplay:10.37,2013-04-24 20:25:00,
2013-04-24 15:30:00,57.6,26.4,30.11,NW,312,6.9,6.9,30,0.00,CLR,SKC,0.00,WeatherDisplay:10.37,2013-04-24 20:30:00,
2013-04-24 15:35:00,58.3,27.0,30.11,SSE,155,11.7,11.7,30,0.00,CLR,SKC,0.00,WeatherDisplay:10.37,2013-04-24 20:35:00,
2013-04-24 15:40:00,58.2,26.9,30.10,SSE,153,12.7,12.7,30,0.00,CLR,SKC,0.00,WeatherDisplay:10.37,2013-04-24 20:40:00,
2013-04-24 15:45:00,57.9,27.4,30.10,ESE,117,8.5,8.5,31,0.00,CLR,SKC,0.00,WeatherDisplay:10.37,2013-04-24 20:45:00,
2013-04-24 15:50:00,58.4,26.2,30.10,NNE,25,12.7,12.7,29,0.00,CLR,SKC,0.00,WeatherDisplay:10.37,2013-04-24 20:50:00,
2013-04-24 15:55:00,58.7,27.3,30.09,SSE,149,7.4,7.4,30,0.00,CLR,SKC,0.00,WeatherDisplay:10.37,2013-04-24 20:55:00,
2013-04-24 16:00:00,58.8,27.4,30.09,SE,146,13.8,13.8,30,0.00,CLR,SKC,0.00,WeatherDisplay:10.37,2013-04-24 21:00:00,
2013-04-24 16:05:00,58.7,28.1,30.09,East,89,6.9,6.9,31,0.00,CLR,SKC,0.00,WeatherDisplay:10.37,2013-04-24 21:05:00,
2013-04-24 16:10:00,58.7,28.9,30.09,SSE,162,8.5,8.5,32,0.00,CLR,SKC,0.00,WeatherDisplay:10.37,2013-04-24 21:10:00,
2013-04-24 16:15:00,58.7,28.1,30.09,ESE,106,12.7,12.7,31,0.00,CLR,SKC,0.00,WeatherDisplay:10.37,2013-04-24 21:15:00,
2013-04-24 16:20:00,58.6,28.0,30.08,South,169,18.4,18.4,31,0.00,CLR,SKC,0.00,WeatherDisplay:10.37,2013-04-24 21:20:00,
2013-04-24 16:25:00,59.2,30.1,30.08,SSE,168,7.4,7.4,33,0.00,CLR,SKC,0.00,WeatherDisplay:10.37,2013-04-24 21:25:00,
2013-04-24 16:30:00,59.5,28.8,30.08,SE,127,21.2,21.2,31,0.00,CLR,SKC,0.00,WeatherDisplay:10.37,2013-04-24 21:30:00,
2013-04-24 16:35:00,59.2,30.1,30.08,East,85,18.4,18.4,33,0.00,CLR,SKC,0.00,WeatherDisplay:10.37,2013-04-24 21:35:00,
2013-04-24 16:40:00,59.2,30.1,30.08,NW,308,10.6,10.6,33,0.00,CLR,SKC,0.00,WeatherDisplay:10.37,2013-04-24 21:40:00,
2013-04-24 16:45:00,59.8,29.1,30.08,SE,136,8.5,8.5,31,0.00,CLR,SKC,0.00,WeatherDisplay:10.37,2013-04-24 21:45:00,
2013-04-24 16:50:00,59.9,29.2,30.07,East,90,18.4,18.4,31,0.00,CLR,SKC,0.00,WeatherDisplay:10.37,2013-04-24 21:50:00,
2013-04-24 16:55:00,60.1,29.3,30.07,East,86,16.1,16.1,31,0.00,CLR,SKC,0.00,WeatherDisplay:10.37,2013-04-24 21:55:00,
2013-04-24 17:00:00,59.2,30.1,30.07,SSE,151,12.7,12.7,33,0.00,CLR,SKC,0.00,WeatherDisplay:10.37,2013-04-24 22:00:00,
2013-04-24 17:05:00,58.9,29.8,30.07,ESE,120,19.6,19.6,33,0.00,CLR,SKC,0.00,WeatherDisplay:10.37,2013-04-24 22:05:00,
2013-04-24 17:10:00,58.3,30.0,30.07,SE,142,13.8,13.8,34,0.00,CLR,SKC,0.00,WeatherDisplay:10.37,2013-04-24 22:10:00,
2013-04-24 17:16:00,58.8,32.6,30.06,ESE,120,10.6,10.6,37,0.00,CLR,SKC,0.00,WeatherDisplay:10.37,2013-04-24 22:16:00,
2013-04-24 17:21:00,59.2,30.8,30.06,SSE,160,11.7,11.7,34,0.00,CLR,SKC,0.00,WeatherDisplay:10.37,2013-04-24 22:21:00,
2013-04-24 17:26:00,59.9,30.7,30.06,SE,136,15.0,15.0,33,0.00,CLR,SKC,0.00,WeatherDisplay:10.37,2013-04-24 22:26:00,
2013-04-24 17:31:00,59.3,31.6,30.05,SSE,166,12.7,12.7,35,0.00,CLR,SKC,0.00,WeatherDisplay:10.37,2013-04-24 22:31:00,
2013-04-24 17:36:00,59.0,31.4,30.05,SSE,162,13.8,13.8,35,0.00,CLR,SKC,0.00,WeatherDisplay:10.37,2013-04-24 22:36:00,
2013-04-24 17:41:00,59.2,31.5,30.05,SE,136,17.0,17.0,35,0.00,CLR,SKC,0.00,WeatherDisplay:10.37,2013-04-24 22:41:00,
2013-04-24 17:46:00,59.5,30.3,30.05,ESE,117,18.0,18.0,33,0.00,CLR,SKC,0.00,WeatherDisplay:10.37,2013-04-24 22:46:00,
2013-04-24 17:51:00,59.1,29.2,30.05,SE,124,13.8,13.8,32,0.00,CLR,SKC,0.00,WeatherDisplay:10.37,2013-04-24 22:51:00,
2013-04-24 17:56:00,58.9,29.1,30.05,SE,137,12.7,12.7,32,0.00,CLR,SKC,0.00,WeatherDisplay:10.37,2013-04-24 22:56:00,
2013-04-24 18:01:00,59.0,28.4,30.05,SE,139,6.9,6.9,31,0.00,CLR,SKC,0.00,WeatherDisplay:10.37,2013-04-24 23:01:00,
2013-04-24 18:06:00,59.2,26.1,30.05,SE,140,8.1,8.1,28,0.00,CLR,SKC,0.00,WeatherDisplay:10.37,2013-04-24 23:06:00,
2013-04-24 18:11:00,59.4,24.5,30.05,SSE,155,16.1,16.1,26,0.00,CLR,SKC,0.00,WeatherDisplay:10.37,2013-04-24 23:11:00,
2013-04-24 18:16:00,59.2,24.3,30.05,SW,218,11.5,11.5,26,0.00,CLR,SKC,0.00,WeatherDisplay:10.37,2013-04-24 23:16:00,
2013-04-24 18:21:00,59.0,24.1,30.05,South,184,9.5,9.5,26,0.00,CLR,SKC,0.00,WeatherDisplay:10.37,2013-04-24 23:21:00,
2013-04-24 18:26:00,58.7,24.8,30.05,SSW,200,12.7,12.7,27,0.00,CLR,SKC,0.00,WeatherDisplay:10.37,2013-04-24 23:26:00,
2013-04-24 18:31:00,58.5,24.6,30.05,SSW,193,9.5,9.5,27,0.00,CLR,SKC,0.00,WeatherDisplay:10.37,2013-04-24 23:31:00,
2013-04-24 18:36:00,58.5,24.6,30.05,SE,132,17.0,17.0,27,0.00,CLR,SKC,0.00,WeatherDisplay:10.37,2013-04-24 23:36:00,
2013-04-24 18:41:00,58.4,24.5,30.05,SSW,200,9.5,9.5,27,0.00,CLR,SKC,0.00,WeatherDisplay:10.37,2013-04-24 23:41:00,
2013-04-24 18:46:00,57.9,24.1,30.07,SW,219,24.4,24.4,27,0.00,CLR,SKC,0.00,WeatherDisplay:10.37,2013-04-24 23:46:00,
2013-04-24 18:51:00,57.0,28.1,30.09,East,79,25.3,25.3,33,0.00,CLR,SKC,0.00,WeatherDisplay:10.37,2013-04-24 23:51:00,
2013-04-24 18:56:00,55.0,29.2,30.09,SSW,199,17.3,17.3,37,0.00,CLR,SKC,0.00,WeatherDisplay:10.37,2013-04-24 23:56:00,
2013-04-24 19:01:00,54.7,28.9,30.08,WSW,252,19.6,19.6,37,0.00,CLR,SKC,0.00,WeatherDisplay:10.37,2013-04-25 00:01:00,
2013-04-24 19:06:00,55.0,28.5,30.09,SSW,205,11.7,11.7,36,0.00,CLR,SKC,0.00,WeatherDisplay:10.37,2013-04-25 00:06:00,
2013-04-24 19:11:00,55.2,28.7,30.08,SW,223,16.1,16.1,36,0.00,CLR,SKC,0.00,WeatherDisplay:10.37,2013-04-25 00:11:00,
2013-04-24 19:16:00,55.2,28.7,30.08,WSW,247,15.0,15.0,36,0.00,CLR,SKC,0.00,WeatherDisplay:10.37,2013-04-25 00:16:00,
2013-04-24 19:21:00,55.4,28.2,30.08,SSW,193,23.0,23.0,35,0.00,CLR,SKC,0.00,WeatherDisplay:10.37,2013-04-25 00:21:00,
2013-04-24 19:26:00,55.5,28.3,30.08,SW,217,19.6,19.6,35,0.00,CLR,SKC,0.00,WeatherDisplay:10.37,2013-04-25 00:26:00,
2013-04-24 19:31:00,55.1,30.6,30.09,SW,227,26.5,26.5,39,0.00,CLR,SKC,0.00,WeatherDisplay:10.37,2013-04-25 00:31:00,
2013-04-24 19:36:00,53.9,32.5,30.09,WSW,248,13.8,13.8,44,0.00,CLR,SKC,0.00,WeatherDisplay:10.37,2013-04-25 00:36:00,
2013-04-24 19:41:00,54.0,30.8,30.09,SW,227,23.0,23.0,41,0.00,CLR,SKC,0.00,WeatherDisplay:10.37,2013-04-25 00:41:00,
2013-04-24 19:46:00,53.4,32.6,30.10,SSW,209,19.1,19.1,45,0.00,CLR,SKC,0.00,WeatherDisplay:10.37,2013-04-25 00:46:00,
2013-04-24 19:51:00,52.2,33.6,30.11,SW,222,19.1,19.1,49,0.00,CLR,SKC,0.00,WeatherDisplay:10.37,2013-04-25 00:51:00,
2013-04-24 19:56:00,51.6,34.0,30.11,SW,221,20.7,20.7,51,0.00,CLR,SKC,0.00,WeatherDisplay:10.37,2013-04-25 00:56:00,
2013-04-24 20:01:00,51.0,34.5,30.12,SW,224,15.0,15.0,53,0.00,CLR,SKC,0.00,WeatherDisplay:10.37,2013-04-25 01:01:00,
2013-04-24 20:06:00,50.7,34.6,30.12,SW,225,13.8,13.8,54,0.00,CLR,SKC,0.00,WeatherDisplay:10.37,2013-04-25 01:06:00,
2013-04-24 20:11:00,50.5,34.9,30.12,SW,219,13.8,13.8,55,0.00,CLR,SKC,0.00,WeatherDisplay:10.37,2013-04-25 01:11:00,
2013-04-24 20:16:00,50.5,35.4,30.12,SW,221,15.0,15.0,56,0.00,CLR,SKC,0.00,WeatherDisplay:10.37,2013-04-25 01:16:00,
2013-04-24 20:21:00,50.3,35.2,30.13,SW,221,17.0,17.0,56,0.00,CLR,SKC,0.00,WeatherDisplay:10.37,2013-04-25 01:21:00,
2013-04-24 20:26:00,50.2,35.5,30.13,SW,217,11.5,11.5,57,0.00,CLR,SKC,0.00,WeatherDisplay:10.37,2013-04-25 01:26:00,
2013-04-24 20:31:00,49.9,35.7,30.14,SW,224,13.8,13.8,58,0.00,CLR,SKC,0.00,WeatherDisplay:10.37,2013-04-25 01:31:00,
2013-04-24 20:36:00,49.7,35.5,30.14,SW,228,10.6,10.6,58,0.00,CLR,SKC,0.00,WeatherDisplay:10.37,2013-04-25 01:36:00,
2013-04-24 20:41:00,49.5,35.8,30.14,SW,221,7.4,7.4,59,0.00,CLR,SKC,0.00,WeatherDisplay:10.37,2013-04-25 01:41:00,
2013-04-24 20:46:00,49.2,35.9,30.14,SW,218,7.4,7.4,60,0.00,CLR,SKC,0.00,WeatherDisplay:10.37,2013-04-25 01:46:00,
2013-04-24 20:51:00,48.8,35.5,30.14,SW,231,6.9,6.9,60,0.00,CLR,SKC,0.00,WeatherDisplay:10.37,2013-04-25 01:51:00,
2013-04-24 20:56:00,48.5,35.7,30.14,SW,236,6.9,6.9,61,0.00,CLR,SKC,0.00,WeatherDisplay:10.37,2013-04-25 01:56:00,
2013-04-24 21:01:00,47.9,35.5,30.14,SW,231,5.8,5.8,62,0.00,CLR,SKC,0.00,WeatherDisplay:10.37,2013-04-25 02:01:00,
2013-04-24 21:06:00,47.2,35.2,30.15,SSW,205,6.9,6.9,63,0.00,CLR,SKC,0.00,WeatherDisplay:10.37,2013-04-25 02:06:00,
2013-04-24 21:11:00,46.7,35.2,30.15,SW,221,2.3,2.3,64,0.00,CLR,SKC,0.00,WeatherDisplay:10.37,2013-04-25 02:11:00,
2013-04-24 21:16:00,46.5,35.4,30.16,SSW,208,4.2,4.2,65,0.00,CLR,SKC,0.00,WeatherDisplay:10.37,2013-04-25 02:16:00,
2013-04-24 21:22:00,46.3,35.6,30.16,SW,226,3.5,3.5,66,0.00,CLR,SKC,0.00,WeatherDisplay:10.37,2013-04-25 02:22:00,
2013-04-24 21:27:00,45.9,35.6,30.16,SW,219,4.6,4.6,67,0.00,CLR,SKC,0.00,WeatherDisplay:10.37,2013-04-25 02:27:00,
2013-04-24 21:32:00,45.7,35.4,30.16,SW,230,3.5,3.5,67,0.00,CLR,SKC,0.00,WeatherDisplay:10.37,2013-04-25 02:32:00,
2013-04-24 21:37:00,45.3,35.4,30.17,SW,225,3.5,3.5,68,0.00,CLR,SKC,0.00,WeatherDisplay:10.37,2013-04-25 02:37:00,
2013-04-24 21:42:00,45.0,35.1,30.17,SW,215,3.5,3.5,68,0.00,CLR,SKC,0.00,WeatherDisplay:10.37,2013-04-25 02:42:00,
2013-04-24 21:47:00,44.6,35.1,30.17,SW,227,0.0,0.0,69,0.00,CLR,SKC,0.00,WeatherDisplay:10.37,2013-04-25 02:47:00,
2013-04-24 21:52:00,44.2,34.7,30.17,SW,235,3.5,3.5,69,0.00,CLR,SKC,0.00,WeatherDisplay:10.37,2013-04-25 02:52:00,
2013-04-24 21:57:00,43.9,34.7,30.17,SW,224,4.6,4.6,70,0.00,CLR,SKC,0.00,WeatherDisplay:10.37,2013-04-25 02:57:00,
2013-04-24 22:02:00,43.6,34.8,30.17,SW,233,3.5,3.5,71,0.00,CLR,SKC,0.00,WeatherDisplay:10.37,2013-04-25 03:02:00,
2013-04-24 22:07:00,43.4,35.0,30.17,SW,225,3.5,3.5,72,0.00,CLR,SKC,0.00,WeatherDisplay:10.37,2013-04-25 03:07:00,
2013-04-24 22:12:00,43.3,34.9,30.18,SW,235,5.8,5.8,72,0.00,CLR,SKC,0.00,WeatherDisplay:10.37,2013-04-25 03:12:00,
2013-04-24 22:17:00,43.3,34.9,30.18,WSW,257,4.6,4.6,72,0.00,CLR,SKC,0.00,WeatherDisplay:10.37,2013-04-25 03:17:00,
2013-04-24 22:22:00,43.2,34.8,30.18,WSW,237,4.6,4.6,72,0.00,CLR,SKC,0.00,WeatherDisplay:10.37,2013-04-25 03:22:00,
2013-04-24 22:27:00,43.2,34.4,30.18,SW,221,5.8,5.8,71,0.00,CLR,SKC,0.00,WeatherDisplay:10.37,2013-04-25 03:27:00,
2013-04-24 22:32:00,43.3,34.5,30.19,SW,215,4.6,4.6,71,0.00,CLR,SKC,0.00,WeatherDisplay:10.37,2013-04-25 03:32:00,
2013-04-24 22:37:00,43.2,34.4,30.19,SW,226,3.5,3.5,71,0.00,CLR,SKC,0.00,WeatherDisplay:10.37,2013-04-25 03:37:00,
2013-04-24 22:42:00,43.1,34.3,30.19,SW,227,3.5,3.5,71,0.00,CLR,SKC,0.00,WeatherDisplay:10.37,2013-04-25 03:42:00,
2013-04-24 22:47:00,43.0,34.2,30.19,SW,223,2.3,2.3,71,0.00,CLR,SKC,0.00,WeatherDisplay:10.37,2013-04-25 03:47:00,
2013-04-24 22:52:00,42.8,34.0,30.19,SW,226,3.2,3.2,71,0.00,CLR,SKC,0.00,WeatherDisplay:10.37,2013-04-25 03:52:00,
2013-04-24 22:57:00,42.7,33.9,30.20,SW,224,2.3,2.3,71,0.00,CLR,SKC,0.00,WeatherDisplay:10.37,2013-04-25 03:57:00,
2013-04-24 23:01:00,42.6,33.9,30.20,SW,230,2.3,2.3,71,0.00,CLR,SKC,0.00,WeatherDisplay:10.37,2013-04-25 04:01:00,
2013-04-24 23:06:00,42.3,33.6,30.20,SW,217,4.2,4.2,71,0.00,CLR,SKC,0.00,WeatherDisplay:10.37,2013-04-25 04:06:00,
2013-04-24 23:11:00,42.0,33.3,30.20,SW,219,3.5,3.5,71,0.00,CLR,SKC,0.00,WeatherDisplay:10.37,2013-04-25 04:11:00,
2013-04-24 23:16:00,41.6,33.2,30.21,SW,233,4.2,4.2,72,0.00,CLR,SKC,0.00,WeatherDisplay:10.37,2013-04-25 04:16:00,
2013-04-24 23:21:00,41.3,33.0,30.21,WSW,239,4.2,4.2,72,0.00,CLR,SKC,0.00,WeatherDisplay:10.37,2013-04-25 04:21:00,
2013-04-24 23:26:00,41.3,33.0,30.21,SW,226,3.2,3.2,72,0.00,CLR,SKC,0.00,WeatherDisplay:10.37,2013-04-25 04:26:00,
2013-04-24 23:31:00,41.0,32.7,30.21,SSW,203,0.0,0.0,72,0.00,CLR,SKC,0.00,WeatherDisplay:10.37,2013-04-25 04:31:00,
2013-04-24 23:36:00,40.7,32.7,30.21,SSW,203,0.0,0.0,73,0.00,CLR,SKC,0.00,WeatherDisplay:10.37,2013-04-25 04:36:00,
2013-04-24 23:41:00,40.4,32.4,30.21,SSW,203,0.0,0.0,73,0.00,CLR,SKC,0.00,WeatherDisplay:10.37,2013-04-25 04:41:00,
2013-04-24 23:46:00,39.7,32.1,30.21,SSW,203,0.0,0.0,74,0.00,CLR,SKC,0.00,WeatherDisplay:10.37,2013-04-25 04:46:00,
2013-04-24 23:51:00,39.3,32.0,30.21,SSW,203,0.0,0.0,75,0.00,CLR,SKC,0.00,WeatherDisplay:10.37,2013-04-25 04:51:00,
2013-04-24 23:56:00,38.8,31.9,30.22,SSW,203,0.0,0.0,76,0.00,CLR,SKC,0.00,WeatherDisplay:10.37,2013-04-25 04:56:00,